Hourly Data Report for April 19, 2012

MIRAMICHI RCS
NEW BRUNSWICK

47°00'34.000" N
65°27'54.000" W
33.00 m
8100989
71744
ACQ

Download Data

Hourly Data (April 2012)
Hourly Data Report for April 19, 2012
TIME
LST
Temp Definition
°C
Dew Point Definition
°C
Rel Hum Definition
%
Precip. Amount Definition
mm

Wind Dir Definition
10's deg

Wind Spd Definition
km/h
Visibility Definition
km
Stn Press Definition
kPa
Hmdx Definition


Wind Chill Definition


Weather Definition


00:00 -0.5 -2.3 88   9 9   101.97   -4 LegendNANA
01:00 -1.1 -2.3 92   36 4   101.93   -2 LegendNANA
02:00 -1.5 -2.9 90     0   101.90     LegendNANA
03:00 -2.1 -3.3 91     0   101.86     LegendNANA
04:00 -2.7 -3.9 91   28 2   101.89   -3 LegendNANA
05:00 -3.1 -4.3 91   26 2   101.88   -4 LegendNANA
06:00 -2.8 -4.1 91   24 2   101.93   -4 LegendNANA
07:00 0.2 -1.8 86   23 2   101.94     LegendNANA
08:00 2.8 -1.7 72     0   101.89     LegendNANA
09:00 4.6 -2.6 60   11 2   101.88     LegendNANA
10:00 6.3 -3.1 51   9 9   101.78     LegendNANA
11:00 8.4 -2.6 46   6 6   101.70     LegendNANA
12:00 9.2 -0.8 50   11 9   101.58     LegendNANA
13:00 8.9 1.0 58   5 17   101.48     LegendNANA
14:00 9.7 0.5 53   5 19   101.43     LegendNANA
15:00 9.1 0.2 54   5 19   101.35     LegendNANA
16:00 11.2 -1.0 43   10 19   101.23     LegendNANA
17:00 9.5 -1.5 46   10 24   101.23     LegendNANA
18:00 7.6 -2.0 51   11 20   101.22     LegendNANA
19:00 5.9 -1.2 60   10 17   101.21     LegendNANA
20:00 3.8 -0.9 71   8 11   101.21     LegendNANA
21:00 3.2 -1.5 71   10 6   101.19     LegendNANA
22:00 3.8 -1.0 71   15 7   101.14     LegendNANA
23:00 3.4 -0.9 73   18 7   101.12     LegendNANA

Notes on Data Quality.

Legend

  • E = Estimated
  • M = Missing
  • NA = Not Available*
  • [empty] = Indicates an unobserved value
Date modified: